RUSSARO Weather Reports


time (UTC)temp
C
wind
direction
speed
KPH
gust
KPH
rain 1hr
cm
rain 24hr
cm
rain mn
cm
humidity
%
barometer
mb
20260507104726 10 158 11.3 12.9 0.00 0.00 0.00 47 1016.4
20260507102727 10 150 9.7 11.3 0.00 0.00 0.00 46 1016.3
20260507100727 8 135 11.3 14.5 0.00 0.00 0.00 48 1016.2
20260507094727 7 126 16.1 19.3 0.00 0.00 0.00 55 1016.1
20260507090727 8 110 20.9 22.5 0.00 0.00 0.00 57 1016.1
20260507084727 8 107 22.5 24.1 0.00 0.00 0.00 58 1016.0
20260507082727 7 104 20.9 22.5 0.00 0.00 0.00 58 1016.1
20260507080726 7 94 22.5 27.4 0.00 0.00 0.00 56 1016.1
20260507074727 8 89 27.4 29.0 0.00 0.00 0.00 53 1016.1
20260507072727 7 79 22.5 24.1 0.00 0.00 0.00 54 1016.1
20260507070726 8 81 24.1 25.7 0.00 0.00 0.00 53 1016.1
20260507064727 8 76 22.5 25.7 0.00 0.00 0.00 51 1016.0
20260507062726 8 66 20.9 24.1 0.00 0.00 0.00 53 1015.9
20260507060726 7 69 20.9 22.5 0.00 0.00 0.00 55 1015.9
20260507054727 6 55 17.7 20.9 0.00 0.00 0.00 58 1015.7
20260507052726 6 58 19.3 20.9 0.00 0.00 0.00 57 1015.7
20260507050726 6 53 17.7 20.9 0.00 0.00 0.00 58 1015.6
20260507042725 5 42 17.7 20.9 0.00 0.00 0.00 58 1015.5
20260507040727 4 48 17.7 20.9 0.00 0.00 0.00 60 1015.5
20260507034727 3 53 19.3 22.5 0.00 0.00 0.00 64 1015.4
20260507032727 3 56 20.9 22.5 0.00 0.00 0.00 64 1015.2
20260507030727 3 53 20.9 22.5 0.00 0.00 0.00 64 1015.2
20260507024726 3 51 20.9 24.1 0.00 0.00 0.00 66 1015.2
20260507022726 3 56 20.9 24.1 0.00 0.00 0.00 69 1015.1
20260507020725 3 51 20.9 22.5 0.00 0.00 0.00 66 1015.1
20260507014726 3 51 20.9 24.1 0.00 0.00 0.00 69 1015.1
20260507012726 3 58 20.9 22.5 0.00 0.00 0.00 70 1015.1
20260507010725 3 58 20.9 24.1 0.00 0.00 0.00 66 1014.9
20260507004725 3 58 20.9 24.1 0.00 0.00 0.00 62 1014.9
20260507002726 3 50 22.5 24.1 0.00 0.00 0.00 63 1014.6
20260507000725 3 45 22.5 24.1 0.00 0.00 0.00 63 1014.6
20260506234726 3 49 22.5 24.1 0.00 0.00 0.00 64 1014.6
20260506232725 3 32 20.9 24.1 0.00 0.00 0.00 70 1014.6
20260506230727 3 29 20.9 24.1 0.00 0.00 0.00 69 1014.6
20260506224724 3 21 22.5 25.7 0.00 0.00 0.00 67 1014.7
20260506222725 4 8 20.9 27.4 0.00 0.00 0.00 63 1014.6
20260506220725 4 4 19.3 24.1 0.00 0.00 0.00 70 1014.6
20260506214725 4 356 19.3 22.5 0.00 0.00 0.00 66 1014.6
20260506212726 4 349 17.7 20.9 0.00 0.00 0.00 68 1014.5
20260506210725 5 346 17.7 20.9 0.00 0.00 0.00 71 1014.5
20260506204725 5 342 17.7 20.9 0.00 0.00 0.00 75 1014.5
20260506202725 5 331 17.7 20.9 0.00 0.00 0.00 69 1014.5
20260506200725 5 323 16.1 17.7 0.00 0.00 0.00 69 1014.6
20260506194725 5 316 16.1 17.7 0.00 0.00 0.00 68 1014.7
20260506192724 6 311 17.7 19.3 0.00 0.00 0.00 64 1014.7
20260506190724 6 310 17.7 19.3 0.00 0.00 0.00 60 1014.7
20260506184724 6 314 17.7 20.9 0.00 0.00 0.00 61 1014.6
20260506182725 6 305 17.7 20.9 0.00 0.00 0.00 60 1014.5
20260506180725 6 299 20.9 24.1 0.00 0.00 0.00 65 1014.5
20260506174725 7 291 24.1 25.7 0.00 0.00 0.00 64 1014.5
20260506172723 7 287 22.5 25.7 0.00 0.00 0.00 62 1014.6
20260506170724 7 287 25.7 27.4 0.00 0.00 0.00 67 1014.6
20260506164723 7 281 25.7 27.4 0.00 0.00 0.00 70 1014.6
20260506162724 7 283 25.7 27.4 0.00 0.00 0.00 69 1014.6
20260506160724 7 284 25.7 27.4 0.00 0.00 0.00 67 1014.6
20260506154724 7 282 27.4 30.6 0.00 0.00 0.00 66 1014.6
20260506152724 7 282 27.4 30.6 0.00 0.00 0.00 65 1014.7
20260506150723 7 283 30.6 33.8 0.00 0.00 0.00 60 1014.7
20260506144723 7 281 30.6 33.8 0.00 0.00 0.00 58 1014.9
20260506142723 7 277 30.6 33.8 0.00 0.00 0.00 57 1015.0
20260506140722 7 268 32.2 33.8 0.00 0.00 0.00 62 1015.0
20260506134723 7 265 32.2 35.4 0.00 0.00 0.00 60 1015.1
20260506132723 8 260 32.2 35.4 0.00 0.00 0.00 63 1015.2
20260506130722 8 257 30.6 33.8 0.00 0.00 0.00 62 1015.2
20260506124723 8 254 30.6 32.2 0.00 0.00 0.00 63 1015.1
20260506122723 8 253 30.6 32.2 0.00 0.00 0.00 69 1015.2
20260506120723 8 251 29.0 30.6 0.00 0.00 0.00 68 1015.2
20260506114723 8 253 30.6 32.2 0.00 0.00 0.00 69 1015.2
20260506112723 8 245 29.0 30.6 0.00 0.00 0.00 69 1015.2
20260506110723 7 238 29.0 32.2 0.00 0.00 0.00 73 1015.1